CARTOSAT-2F

Last updated on Sun Apr 12 2026 00:02:35 GMT+0000 (Coordinated Universal Time)

1 43111U 18004A 26101.48812598 .00003541 00000+0 17100-3 0 9992 2 43111 97.4101 162.0440 0002349 122.2004 237.9458 15.19294971457204
UTC large
Height (km)
Speed (km/s)
/
Latitude / Longitude
Inclination (degrees)
Orbital Period (minutes)
Azimuth
Elevation
Range (km)
Doppler Factor

Next 0 passes for location: London (51.5072 / 0.1276)

Sorry there are no passes over London.
CARTOSAT-2F